Location: McFarlands Corners
(41.4117°N, 81.3382°W)
Time: 05:03:03
(UTC+00:00)

A-11 Canister half - Pass Details

Date: 25 February 2026
Orbit: 1524 x 1683 km, 47.3° (Epoch: 14 March)

Event Time Altitude Azimuth Distance (km) Brightness Sun altitude
Rises 03:02:41 0° 296° (WNW) 4,677 12.3 -42.9°
Reaches altitude 10° 03:05:57 10° 290° (WNW) 3,692 11.6 -43.4°
Enters shadow 03:12:29 36° 249° (WSW) 2,233 9.9 -44.4°
